| time (UTC) | temp C | wind direction | speed KPH | gust KPH | rain 1hr cm | rain 24hr cm | rain mn cm | humidity % | barometer mb |
| 20260506011226 | 22 | 21 | 4.8 | 14.5 | 0.74 | 0.74 | 0.74 | 94 | 1013.7 |
| 20260506004226 | 22 | 352 | 11.3 | 22.5 | 0.48 | 0.48 | 0.48 | 92 | 1013.9 |
| 20260506001226 | 23 | 138 | 1.6 | 6.4 | 0.00 | 0.00 | 0.00 | 94 | 1014.0 |
| 20260505234226 | 22 | 136 | 3.2 | 9.7 | 0.00 | 0.00 | 0.00 | 95 | 1013.8 |
| 20260505231226 | 22 | 138 | 1.6 | 6.4 | 0.00 | 0.00 | 0.00 | 96 | 1013.8 |
| 20260505224226 | 21 | 123 | 1.6 | 4.8 | 0.00 | 0.00 | 0.00 | 97 | 1013.7 |
| 20260505221226 | 21 | 154 | 4.8 | 9.7 | 0.00 | 0.00 | 0.00 | 96 | 1013.5 |
| 20260505214226 | 20 | 152 | 3.2 | 9.7 | 0.00 | 0.00 | 0.00 | 98 | 1013.4 |
| 20260505211226 | 19 | 150 | 3.2 | 6.4 | 0.00 | 0.00 | 0.00 | 97 | 1013.1 |
| 20260505204226 | 19 | 166 | 4.8 | 9.7 | 0.00 | 0.00 | 0.00 | 97 | 1012.9 |
| 20260505201226 | 19 | 166 | 4.8 | 9.7 | 0.00 | 0.00 | 0.00 | 97 | 1012.5 |
| 20260505194226 | 19 | 150 | 4.8 | 8.0 | 0.00 | 0.00 | 0.00 | 97 | 1012.2 |
| 20260505191226 | 19 | 153 | 4.8 | 8.0 | 0.00 | 0.00 | 0.00 | 96 | 1012.2 |
| 20260505184226 | 19 | 160 | 4.8 | 8.0 | 0.00 | 0.00 | 0.00 | 96 | 1011.8 |
| 20260505181226 | 19 | 158 | 3.2 | 4.8 | 0.00 | 0.00 | 0.00 | 96 | 1012.2 |
| 20260505174226 | 20 | 171 | 1.6 | 6.4 | 0.00 | 0.00 | 0.00 | 96 | 1012.4 |
| 20260505171226 | 20 | 140 | 1.6 | 4.8 | 0.00 | 0.00 | 0.00 | 96 | 1012.3 |
| 20260505164226 | 20 | 193 | 1.6 | 6.4 | 0.00 | 0.00 | 0.00 | 95 | 1012.7 |
| 20260505161226 | 20 | 160 | 1.6 | 4.8 | 0.00 | 0.00 | 0.00 | 95 | 1012.7 |
| 20260505151226 | 20 | 163 | 1.6 | 4.8 | 0.00 | 0.00 | 0.00 | 95 | 1013.2 |
| 20260505124226 | 21 | 184 | 1.6 | 4.8 | 0.00 | 0.00 | 0.00 | 92 | 1014.1 |
| 20260505121226 | 21 | 141 | 1.6 | 4.8 | 0.00 | 0.00 | 0.00 | 93 | 1013.8 |
| 20260505114226 | 21 | 110 | 1.6 | 1.6 | 0.00 | 0.00 | 0.00 | 92 | 1013.8 |
| 20260505111226 | 21 | 109 | 1.6 | 3.2 | 0.00 | 0.00 | 0.00 | 91 | 1013.8 |
| 20260505101226 | 21 | 122 | 1.6 | 3.2 | 0.00 | 0.00 | 0.00 | 90 | 1013.7 |
| 20260505094226 | 22 | 124 | 1.6 | 4.8 | 0.00 | 0.00 | 0.00 | 89 | 1013.6 |
| 20260505091226 | 22 | 135 | 1.6 | 6.4 | 0.00 | 0.00 | 0.00 | 89 | 1013.2 |
| 20260505084226 | 22 | 127 | 1.6 | 4.8 | 0.00 | 0.00 | 0.00 | 88 | 1013.2 |
| 20260505081226 | 22 | 135 | 3.2 | 8.0 | 0.00 | 0.00 | 0.00 | 87 | 1012.7 |
| 20260505074226 | 22 | 133 | 3.2 | 6.4 | 0.00 | 0.00 | 0.00 | 86 | 1012.5 |
| 20260505071226 | 23 | 122 | 1.6 | 4.8 | 0.00 | 0.00 | 0.00 | 85 | 1012.5 |
| 20260505064226 | 23 | 124 | 1.6 | 6.4 | 0.00 | 0.00 | 0.00 | 84 | 1012.0 |
| 20260505061226 | 23 | 139 | 1.6 | 6.4 | 0.00 | 0.00 | 0.00 | 84 | 1012.0 |
| 20260505054226 | 24 | 120 | 3.2 | 9.7 | 0.00 | 0.00 | 0.00 | 82 | 1011.7 |
| 20260505051226 | 25 | 112 | 4.8 | 9.7 | 0.00 | 0.00 | 0.00 | 80 | 1011.7 |
| 20260505041226 | 25 | 127 | 3.2 | 9.7 | 0.00 | 0.00 | 0.00 | 78 | 1011.6 |
| 20260505034226 | 25 | 133 | 3.2 | 8.0 | 0.00 | 0.00 | 0.00 | 78 | 1011.8 |
| 20260505031226 | 26 | 118 | 4.8 | 12.9 | 0.00 | 0.00 | 0.00 | 76 | 1011.9 |
| 20260505024226 | 26 | 120 | 4.8 | 11.3 | 0.00 | 0.00 | 0.00 | 77 | 1012.0 |
| 20260505021226 | 26 | 112 | 4.8 | 11.3 | 0.00 | 0.00 | 0.00 | 76 | 1012.3 |
| 20260505014226 | 26 | 115 | 3.2 | 11.3 | 0.00 | 0.00 | 0.00 | 78 | 1012.5 |